This is the latest recevied weather packets stored in our database for station/object AK4NG. If no packets are shown the sender has not sent any weather packets the latest 10 day(s).
| Time | Temp. | Humidity | Pressure | Rain* | Wind** | Luminosity | Snow |
|---|---|---|---|---|---|---|---|
| 1777801752 | 9.44° C | 84% | 1020 hPa | 0 mm | - | 0 W/m² | - |
| 1777801449 | 9.44° C | 83% | 1019.9 hPa | 0 mm | - | 0 W/m² | - |
| 1777801146 | 9.44° C | 81% | 1019.9 hPa | 0 mm | - | 0 W/m² | - |
| 1777800842 | 9.44° C | 82% | 1019.9 hPa | 0 mm | - | 0 W/m² | - |
| 1777800537 | 9.44° C | 82% | 1020.1 hPa | 0 mm | - | 0 W/m² | - |
| 1777800234 | 9.44° C | 84% | 1019.9 hPa | 0 mm | - | 0 W/m² | - |
| 1777799929 | 9.44° C | 83% | 1020 hPa | 0 mm | - | 0 W/m² | - |
| 1777799626 | 9.44° C | 83% | 1019.9 hPa | 0 mm | - | 0 W/m² | - |
| 1777799323 | 9.44° C | 82% | 1019.9 hPa | 0 mm | - | 0 W/m² | - |
| 1777799018 | 10° C | 84% | 1020.1 hPa | 0 mm | - | 0 W/m² | - |
| 1777798714 | 9.44° C | 80% | 1020.2 hPa | 0 mm | - | 0 W/m² | - |
| 1777798411 | 9.44° C | 79% | 1020 hPa | 0 mm | - | 0 W/m² | - |
| 1777798108 | 9.44° C | 81% | 1019.8 hPa | 0 mm | - | 0 W/m² | - |
| 1777797806 | 9.44° C | 83% | 1019.7 hPa | 0 mm | - | 0 W/m² | - |
| 1777797504 | 9.44° C | 79% | 1019.8 hPa | 0 mm | - | 0 W/m² | - |
| 1777797200 | 9.44° C | 83% | 1019.7 hPa | 0 mm | - | 0 W/m² | - |
| 1777796897 | 9.44° C | 79% | 1019.6 hPa | 0 mm | - | 0 W/m² | - |
| 1777796594 | 10° C | 82% | 1019.5 hPa | 0 mm | - | 0 W/m² | - |
| 1777796290 | 10° C | 81% | 1019.6 hPa | 0 mm | - | 0 W/m² | - |
| 1777795986 | 10° C | 77% | 1019.7 hPa | 0 mm | - | 0 W/m² | - |
| 1777795682 | 10° C | 82% | 1019.7 hPa | 0 mm | - | 0 W/m² | - |
| 1777795380 | 10° C | 77% | 1019.5 hPa | 0 mm | - | 0 W/m² | - |
| 1777795075 | 10° C | 83% | 1019.4 hPa | 0 mm | - | 0 W/m² | - |
| 1777794772 | 10° C | 78% | 1019.4 hPa | 0 mm | - | 0 W/m² | - |
| 1777794468 | 10° C | 80% | 1019.5 hPa | 0 mm | - | 0 W/m² | - |
* Rain latest hour (hover to see other rain measurements)
** Current wind speed in m/s (hover to see current wind gust speed)